DW1289 Weather Reports


Display with metric or nautical units.
time (UTC)temp
F
wind
direction
speed
MPH
gust
MPH
rain 1hr
in
rain 24hr
in
rain mn
in
humidity
%
barometer
mb
20260905081016 78 0.0 0.0 0.00 0.00 0.00 89 1013.1
20260905080016 78 0.0 3.0 0.00 0.00 0.00 89 1013.2
20260905075016 78 0.0 0.0 0.00 0.00 0.00 89 1013.1
20260905074036 78 0.0 0.0 0.00 0.00 0.00 88 1013.1
20260905073016 78 0.0 0.0 0.00 0.00 0.00 88 1013.3
20260905072016 79 0.0 0.0 0.00 0.00 0.00 88 1013.4
20260905071016 79 0.0 0.0 0.00 0.00 0.00 87 1013.4
20260905070016 79 0.0 0.0 0.00 0.00 0.00 87 1013.4
20260905065016 79 0.0 0.0 0.00 0.00 0.00 87 1013.5
20260905064016 79 0.0 0.0 0.00 0.00 0.00 88 1013.7
20260905063016 79 0.0 0.0 0.00 0.00 0.00 88 1013.9
20260905062036 79 0.0 0.0 0.00 0.00 0.00 87 1014.0
20260905061036 79 0.0 0.0 0.00 0.00 0.00 87 1014.2
20260905060016 80 0.0 0.0 0.00 0.00 0.00 87 1014.2
20260905055016 80 0.0 0.0 0.00 0.00 0.00 86 1014.2
20260905054016 80 0.0 0.0 0.00 0.00 0.00 86 1014.1
20260905053016 80 0.0 0.0 0.00 0.00 0.00 86 1014.2
20260905052016 80 0.0 0.0 0.00 0.00 0.00 85 1014.1
20260905051016 80 0.0 0.0 0.00 0.00 0.00 86 1014.1
20260905050016 80 0.0 0.0 0.00 0.00 0.00 85 1014.2
20260905045016 81 0.0 0.0 0.00 0.00 0.00 84 1014.2
20260905044016 81 0.0 0.0 0.00 0.00 0.00 83 1014.1
20260905043016 81 0.0 0.0 0.00 0.00 0.00 83 1014.1
20260905042016 81 0.0 0.0 0.00 0.00 0.00 83 1014.1
20260905041016 81 0.0 0.0 0.00 0.00 0.00 83 1014.1
20260905040016 81 0.0 0.0 0.00 0.00 0.00 83 1014.1
20260905035016 81 0.0 1.0 0.00 0.00 0.00 83 1014.1
20260905034016 82 0.0 0.0 0.00 0.00 0.00 81 1014.2
20260905033016 82 0.0 0.0 0.00 0.00 0.00 80 1014.2
20260905032016 82 0.0 0.0 0.00 0.00 0.00 79 1014.2
20260905031016 83 0.0 0.0 0.00 0.00 0.00 78 1014.3
20260905030016 83 0.0 0.0 0.00 0.00 0.00 78 1014.3
20260905025036 83 0.0 0.0 0.00 0.00 0.00 78 1014.3
20260905024016 84 0.0 0.0 0.00 0.00 0.00 77 1014.1
20260905023036 84 0.0 0.0 0.00 0.00 0.00 75 1014.0
20260905022016 84 0.0 0.0 0.00 0.00 0.00 74 1013.9
20260905021016 85 0.0 0.0 0.00 0.00 0.00 73 1014.0
20260905020036 85 0.0 0.0 0.00 0.00 0.00 72 1013.7
20260905015056 86 0.0 0.0 0.00 0.00 0.00 71 1013.6
20260905014016 86 0.0 0.0 0.00 0.00 0.00 71 1013.6
20260905013016 87 0.0 0.0 0.00 0.00 0.00 68 1013.4
20260905012016 87 0.0 0.0 0.00 0.00 0.00 67 1013.3
20260905011016 88 0.0 0.0 0.00 0.00 0.00 65 1013.1
20260905010016 89 0.0 0.0 0.00 0.00 0.00 66 1013.1
20260905005016 90 0.0 0.0 0.00 0.00 0.00 64 1013.1
20260905004036 91 0.0 0.0 0.00 0.00 0.00 62 1013.1
20260905003016 92 0.0 0.0 0.00 0.00 0.00 60 1013.2
20260905002016 93 0.0 0.0 0.00 0.00 0.00 59 1013.1
20260905001056 94 0.0 0.0 0.00 0.00 0.00 58 1013.0
20260905000016 94 0.0 0.0 0.00 0.00 0.00 55 1013.0
20260904235016 94 0.0 2.0 0.00 0.00 0.00 54 1013.0
20260904234016 95 248 1.0 3.0 0.00 0.00 0.00 52 1013.0
20260904233016 96 248 2.0 3.0 0.00 0.00 0.00 51 1013.1
20260904232016 97 248 1.0 3.0 0.00 0.00 0.00 49 1013.2
20260904231016 98 270 1.0 3.0 0.00 0.00 0.00 47 1013.2
20260904230016 99 0.0 2.0 0.00 0.00 0.00 47 1013.3
20260904225016 99 248 1.0 3.0 0.00 0.00 0.00 45 1013.3
20260904224016 99 270 2.0 4.0 0.00 0.00 0.00 46 1013.3
20260904223016 99 338 2.0 4.0 0.00 0.00 0.00 45 1013.3
20260904222016 99 248 2.0 5.0 0.00 0.00 0.00 46 1013.3
20260904221016 100 248 2.0 7.0 0.00 0.00 0.00 45 1013.4
20260904220017 101 0 1.0 4.0 0.00 0.00 0.00 45 1013.3
20260904215016 101 45 1.0 6.0 0.00 0.00 0.00 42 1013.3
20260904214036 101 270 2.0 6.0 0.00 0.00 0.00 43 1013.3
20260904213016 101 248 2.0 5.0 0.00 0.00 0.00 45 1013.4
20260904212036 102 315 2.0 6.0 0.00 0.00 0.00 44 1013.4
20260904211016 102 248 2.0 8.0 0.00 0.00 0.00 44 1013.5
20260904210016 101 248 2.0 7.0 0.00 0.00 0.00 42 1013.6
20260904205016 101 248 4.0 9.0 0.00 0.00 0.00 43 1013.8
20260904204056 102 248 2.0 8.0 0.00 0.00 0.00 43 1013.8
20260904203016 102 248 2.0 5.0 0.00 0.00 0.00 43 1014.0
20260904202036 102 248 3.0 7.0 0.00 0.00 0.00 44 1014.2
20260904201016 101 248 3.0 9.0 0.00 0.00 0.00 44 1014.3
20260904200056 101 225 4.0 8.0 0.00 0.00 0.00 42 1014.4
20260904195016 102 248 2.0 7.0 0.00 0.00 0.00 43 1014.5
20260904194016 102 270 2.0 7.0 0.00 0.00 0.00 43 1014.7
20260904193016 102 248 2.0 8.0 0.00 0.00 0.00 43 1015.0
20260904192016 102 248 2.0 8.0 0.00 0.00 0.00 41 1015.1
20260904191016 102 338 2.0 7.0 0.00 0.00 0.00 44 1015.4
20260904190016 102 248 2.0 8.0 0.00 0.00 0.00 44 1015.4
20260904185016 102 248 2.0 8.0 0.00 0.00 0.00 45 1015.5
20260904184016 101 248 4.0 10.0 0.00 0.00 0.00 45 1015.6
20260904183016 101 248 4.0 10.0 0.00 0.00 0.00 46 1015.7
20260904182016 101 248 4.0 10.0 0.00 0.00 0.00 47 1015.9
20260904181016 101 248 4.0 10.0 0.00 0.00 0.00 45 1015.9
20260904180016 101 248 3.0 9.0 0.00 0.00 0.00 47 1016.1
20260904175016 100 248 4.0 10.0 0.00 0.00 0.00 45 1016.2
20260904174016 100 248 3.0 8.0 0.00 0.00 0.00 48 1016.2
20260904173016 100 248 3.0 9.0 0.00 0.00 0.00 46 1016.4
20260904172016 100 248 4.0 9.0 0.00 0.00 0.00 48 1016.4
20260904171036 100 248 3.0 9.0 0.00 0.00 0.00 48 1016.4
20260904170016 100 248 2.0 7.0 0.00 0.00 0.00 49 1016.4
20260904165016 99 45 2.0 7.0 0.00 0.00 0.00 48 1016.5
20260904164036 99 248 2.0 8.0 0.00 0.00 0.00 49 1016.5
20260904163016 99 248 3.0 8.0 0.00 0.00 0.00 50 1016.4
20260904162016 99 248 3.0 8.0 0.00 0.00 0.00 49 1016.4
20260904161016 98 248 2.0 7.0 0.00 0.00 0.00 50 1016.5
20260904160036 97 248 3.0 9.0 0.00 0.00 0.00 53 1016.5
20260904155016 97 248 3.0 9.0 0.00 0.00 0.00 54 1016.6
20260904154036 96 270 2.0 5.0 0.00 0.00 0.00 54 1016.5
20260904153016 95 248 2.0 6.0 0.00 0.00 0.00 57 1016.6
20260904152016 94 225 2.0 4.0 0.00 0.00 0.00 62 1016.7
20260904151016 93 248 1.0 5.0 0.00 0.00 0.00 64 1016.7
20260904150016 92 270 1.0 5.0 0.00 0.00 0.00 66 1016.7
20260904145016 91 0.0 0.0 0.00 0.00 0.00 68 1016.7
20260904144016 90 0.0 0.0 0.00 0.00 0.00 69 1016.8
20260904143016 88 0.0 2.0 0.00 0.00 0.00 72 1016.8
20260904142056 87 248 1.0 4.0 0.00 0.00 0.00 73 1016.6
20260904141016 86 180 1.0 3.0 0.00 0.00 0.00 77 1016.6
20260904140016 84 0.0 2.0 0.00 0.00 0.00 79 1016.6
20260904135016 83 0.0 2.0 0.00 0.00 0.00 83 1016.6
20260904134016 81 0.0 1.0 0.00 0.00 0.00 86 1016.6
20260904133036 80 0.0 2.0 0.00 0.00 0.00 89 1016.5
20260904132016 79 0.0 1.0 0.00 0.00 0.00 92 1016.6
20260904131016 78 0.0 3.0 0.00 0.00 0.00 93 1016.3
20260904130036 77 0.0 0.0 0.00 0.00 0.00 94 1016.4
20260904125016 76 0.0 0.0 0.00 0.00 0.00 93 1016.4
20260904124016 76 0.0 0.0 0.00 0.00 0.00 94 1016.3
20260904123016 75 0.0 0.0 0.00 0.00 0.00 94 1016.1
20260904122016 75 0.0 0.0 0.00 0.00 0.00 93 1016.1
20260904121036 75 0.0 3.0 0.00 0.00 0.00 93 1016.1
20260904120016 74 0.0 0.0 0.00 0.00 0.00 93 1016.1
20260904115016 74 0.0 0.0 0.00 0.00 0.00 92 1016.1
20260904114016 74 0.0 0.0 0.00 0.00 0.00 92 1015.9
20260904113016 74 0.0 0.0 0.00 0.00 0.00 92 1016.0
20260904112016 74 0.0 0.0 0.00 0.00 0.00 92 1015.8
20260904111016 74 0.0 0.0 0.00 0.00 0.00 91 1015.8
20260904110016 74 0.0 0.0 0.00 0.00 0.00 91 1015.7
20260904105016 74 0.0 0.0 0.00 0.00 0.00 91 1015.6
20260904104016 74 0.0 0.0 0.00 0.00 0.00 91 1015.7
20260904103016 74 0.0 0.0 0.00 0.00 0.00 91 1015.5
20260904102036 74 0.0 0.0 0.00 0.00 0.00 90 1015.5
20260904101016 74 0.0 0.0 0.00 0.00 0.00 91 1015.5
20260904100016 74 0.0 0.0 0.00 0.00 0.00 90 1015.6
20260904095016 74 0.0 0.0 0.00 0.00 0.00 90 1015.5
20260904094016 74 0.0 0.0 0.00 0.00 0.00 90 1015.5
20260904093036 75 0.0 0.0 0.00 0.00 0.00 90 1015.4
20260904092016 75 0.0 0.0 0.00 0.00 0.00 90 1015.5
20260904091016 75 0.0 0.0 0.00 0.00 0.00 90 1015.5
20260904090016 75 0.0 0.0 0.00 0.00 0.00 90 1015.5
20260904085016 75 0.0 0.0 0.00 0.00 0.00 90 1015.5
20260904084016 75 0.0 0.0 0.00 0.00 0.00 90 1015.4
20260904083016 75 0.0 0.0 0.00 0.00 0.00 89 1015.4
20260904082016 75 0.0 0.0 0.00 0.00 0.00 89 1015.3